Guam Agana, GU

9:16 PM ChST on December 12, 2019 (GMT +1000)
Guam International

Weather History for PGUM - October, 2019

Change the Weather History Date:

Thursday, October 24, 2019

  Actual Average Record
Temperature  
Mean Temperature 84 °F -  
Max Temperature 90 °F 85 °F 91 °F (2016)
Min Temperature 78 °F 75 °F 75 °F (1996)
Cooling Degree Days 19    
Growing Degree Days 34 (Base 50)    
Moisture  
Dew Point 76 °F    
Average Humidity 81    
Maximum Humidity 89    
Minimum Humidity 63    
Precipitation  
Precipitation 0.12 in - - ()
Sea Level Pressure  
Sea Level Pressure 29.83 in    
Wind  
Wind Speed 9 mph ()    
Max Wind Speed 24 mph    
Max Gust Speed 31 mph    
Visibility 9.3 miles    
Events Rain    
Averages and records for this station are not official NWS values.
T = Trace of Precipitation, MM = Missing Value Source: Averaged Metar Reports

Daily Weather History Graph

Daily Weather History Graph

Search for Another Location

Airport or City:

Astronomy

Oct. 24, 2019 Rise Set
Actual Time 6:12 AM ChST 5:57 PM ChST
Civil Twilight 5:51 AM ChST 6:18 PM ChST
Nautical Twilight 5:26 AM ChST 6:43 PM ChST
Astronomical Twilight 5:01 AM ChST 7:08 PM ChST
Moon 2:04 AM ChST (10/24) 2:59 PM ChST (10/24)
Length of Visible Light 12h 27m
Length of Day
11h 44m
Waning Crescent, 22% of the Moon is Illuminated
Oct 24
Waning Crescent
Oct 28
New
Nov 4
First Quarter
Nov 12
Full
Nov 20
Last Quarter

Hourly Weather History & Observations

Time (ChST) Temp. Heat Index Dew Point Humidity Pressure Visibility Wind Dir Wind Speed Gust Speed Precip Events Conditions
12:54 AM 80.1 °F 85.1 °F 75.0 °F 85% 29.83 in 10.0 mi NE 4.6 mph - N/A   Clear
1:54 AM 79.0 °F - 75.0 °F 88% 29.82 in 10.0 mi NE 5.8 mph - N/A   Clear
2:54 AM 79.0 °F - 75.0 °F 88% 29.83 in 10.0 mi NE 6.9 mph - N/A   Partly Cloudy
3:54 AM 79.0 °F - 75.0 °F 88% 29.82 in 10.0 mi ENE 10.4 mph - N/A   Partly Cloudy
4:54 AM 79.0 °F - 75.0 °F 88% 29.82 in 10.0 mi NE 9.2 mph - N/A   Partly Cloudy
5:54 AM 78.8 °F - 75.2 °F 89% 29.86 in 10.0 mi NE 8.1 mph - N/A   Clear
6:54 AM 80.1 °F 85.4 °F 75.9 °F 87% 29.85 in 10.0 mi NE 10.4 mph - N/A   Partly Cloudy
7:54 AM 82.0 °F 88.6 °F 75.0 °F 79% 29.86 in 10.0 mi NNE 9.2 mph - N/A   Clear
8:54 AM 86.0 °F 96.0 °F 75.9 °F 72% 29.87 in 10.0 mi ENE 16.1 mph - N/A   Scattered Clouds
9:54 AM 84.0 °F 94.8 °F 78.1 °F 82% 29.88 in 10.0 mi ENE 11.5 mph - 0.00 in   Mostly Cloudy
10:54 AM 88.0 °F 98.5 °F 75.9 °F 67% 29.85 in 10.0 mi ENE 11.5 mph - 0.00 in   Scattered Clouds
11:54 AM 90.0 °F 101.3 °F 75.9 °F 63% 29.82 in 10.0 mi ENE 13.8 mph - N/A   Partly Cloudy
12:32 PM 84.9 °F 93.3 °F 75.0 °F 72% 29.83 in 8.0 mi East 24.2 mph 31.1 mph 0.00 in   Overcast
12:35 PM 82.9 °F 90.8 °F 75.9 °F 79% 29.83 in 1.5 mi NE 23.0 mph 31.1 mph 0.00 in Rain Heavy Rain
12:41 PM 80.1 °F 85.1 °F 75.0 °F 85% 29.84 in 3.0 mi NE 11.5 mph 31.1 mph 0.07 in Rain Heavy Rain
12:52 PM 80.6 °F 87.1 °F 77.0 °F 89% 29.83 in 10.0 mi ENE 10.4 mph - 0.08 in   Overcast
12:54 PM 82.0 °F 90.2 °F 77.0 °F 85% 29.81 in 10.0 mi NE 10.4 mph - 0.08 in   Mostly Cloudy
1:54 PM 86.0 °F 96.9 °F 77.0 °F 74% 29.78 in 10.0 mi NE 12.7 mph - N/A   Partly Cloudy
2:49 PM 86.0 °F 95.1 °F 75.2 °F 70% 29.80 in 10.0 mi ENE 15.0 mph 20.7 mph N/A   Mostly Cloudy
2:54 PM 87.1 °F 98.8 °F 77.0 °F 72% 29.78 in 10.0 mi ENE 12.7 mph - N/A   Scattered Clouds
3:05 PM 86.0 °F 96.9 °F 77.0 °F 74% 29.80 in 10.0 mi East 9.2 mph - N/A   Mostly Cloudy
3:28 PM 84.9 °F 94.1 °F 75.9 °F 74% 29.80 in 10.0 mi East 12.7 mph - N/A   Mostly Cloudy
3:54 PM 84.9 °F 94.1 °F 75.9 °F 74% 29.78 in 10.0 mi East 17.3 mph 24.2 mph N/A   Partly Cloudy
4:54 PM 84.0 °F 92.6 °F 75.9 °F 76% 29.81 in 10.0 mi East 20.7 mph 25.3 mph N/A   Partly Cloudy
5:54 PM 80.1 °F 85.4 °F 75.9 °F 87% 29.82 in 10.0 mi East 6.9 mph - 0.04 in   Clear
6:54 PM 81.0 °F 87.9 °F 77.0 °F 88% 29.83 in 10.0 mi East 6.9 mph - N/A   Partly Cloudy
7:54 PM 78.1 °F - 73.9 °F 87% 29.86 in 7.0 mi East 8.1 mph - 0.00 in Rain Light Rain
8:54 PM 80.1 °F 85.4 °F 75.9 °F 87% 29.87 in 10.0 mi ENE 10.4 mph - 0.00 in   Clear
9:54 PM 81.0 °F 87.3 °F 75.9 °F 85% 29.86 in 10.0 mi East 11.5 mph - N/A   Clear
10:54 PM 81.0 °F 87.9 °F 77.0 °F 88% 29.86 in 10.0 mi East 10.4 mph - N/A   Clear
11:54 PM 81.0 °F 87.9 °F 77.0 °F 88% 29.86 in 10.0 mi East 9.2 mph - N/A   Scattered Clouds